• In Netherlands
  • List of Countries
  • For 7 days
  • Water Temperature
  • Satellite Maps
  • Weather Map
  • Weather Widgets
  • user-avatar
    Login

    Hourly Weather Babruysk

    Today, 23 June, Friday

    Time Temperature Precipitation Wind Pressure Humidity
    00:00 +13°C° 0 mm 1 mps 744 mmHg 78%
    01:00 +13°C° 0 mm 1 mps 744 mmHg 79%
    02:00 +13°C° 0 mm 1 mps 744 mmHg 81%
    03:00 +12°C° 0 mm 1 mps 743 mmHg 82%
    04:00 +12°C° 0 mm 1 mps 743 mmHg 84%
    05:00 +12°C° 0 mm 1 mps 743 mmHg 85%
    06:00 +14°C° 0 mm 1 mps 743 mmHg 77%
    07:00 +16°C° 0 mm 1 mps 742 mmHg 69%
    08:00 +19°C° 0 mm 1 mps 742 mmHg 61%
    09:00 +21°C° 0 mm 1 mps 742 mmHg 55%
    10:00 +23°C° 0 mm 1 mps 742 mmHg 49%
    11:00 +24°C° 0 mm 1 mps 741 mmHg 44%
    12:00 +24°C° 0 mm 1 mps 741 mmHg 44%
    13:00 +24°C° 0 mm 1 mps 740 mmHg 45%
    14:00 +24°C° 0 mm 1 mps 740 mmHg 46%
    15:00 +23°C° 0.1 mm 1 mps 739 mmHg 54%
    16:00 +22°C° 0.1 mm 1 mps 739 mmHg 62%
    17:00 +21°C° 0.1 mm 1 mps 739 mmHg 70%
    18:00 +20°C° 0 mm 1 mps 739 mmHg 73%
    19:00 +18°C° 0 mm 2 mps 739 mmHg 76%
    20:00 +17°C° 0 mm 2 mps 739 mmHg 78%
    21:00 +16°C° 0 mm 2 mps 740 mmHg 81%
    22:00 +15°C° 0 mm 2 mps 740 mmHg 84%
    23:00 +14°C° 0 mm 2 mps 741 mmHg 86%

    Tomorrow, 24 June, Saturday

    Time Temperature Precipitation Wind Pressure Humidity
    00:00 +13°C° 0 mm 2 mps 741 mmHg 88%
    01:00 +13°C° 0 mm 2 mps 741 mmHg 90%
    02:00 +12°C° 0 mm 2 mps 742 mmHg 92%
    03:00 +12°C° 0 mm 2 mps 742 mmHg 91%
    04:00 +13°C° 0 mm 1 mps 742 mmHg 90%
    05:00 +13°C° 0 mm 1 mps 742 mmHg 88%
    06:00 +14°C° 0 mm 1 mps 743 mmHg 82%
    07:00 +16°C° 0 mm 1 mps 743 mmHg 75%
    08:00 +18°C° 0 mm 1 mps 743 mmHg 68%
    09:00 +20°C° 0 mm 1 mps 743 mmHg 61%
    10:00 +22°C° 0 mm 1 mps 743 mmHg 54%
    11:00 +23°C° 0 mm 1 mps 744 mmHg 47%
    12:00 +24°C° 0 mm 2 mps 743 mmHg 45%
    13:00 +24°C° 0 mm 2 mps 743 mmHg 44%
    14:00 +25°C° 0 mm 2 mps 743 mmHg 42%
    15:00 +24°C° 0 mm 3 mps 743 mmHg 48%
    16:00 +22°C° 0 mm 3 mps 743 mmHg 54%
    17:00 +22°C° 0 mm 3 mps 743 mmHg 60%
    18:00 +20°C° 0 mm 3 mps 743 mmHg 68%
    19:00 +19°C° 0 mm 2 mps 743 mmHg 76%
    20:00 +18°C° 0 mm 2 mps 743 mmHg 85%
    21:00 +17°C° 0 mm 2 mps 744 mmHg 89%
    22:00 +16°C° 0 mm 2 mps 744 mmHg 93%
    23:00 +15°C° 0 mm 2 mps 744 mmHg 98%

    Day after tomorrow, 25 June, Sunday

    Time Temperature Precipitation Wind Pressure Humidity
    00:00 +15°C° 0 mm 2 mps 744 mmHg 98%
    01:00 +15°C° 0 mm 2 mps 744 mmHg 98%
    02:00 +14°C° 0 mm 2 mps 744 mmHg 98%
    03:00 +15°C° 0 mm 2 mps 744 mmHg 97%
    04:00 +15°C° 0 mm 2 mps 744 mmHg 96%
    05:00 +15°C° 0 mm 2 mps 744 mmHg 95%
    06:00 +17°C° 0 mm 2 mps 745 mmHg 88%
    07:00 +18°C° 0 mm 3 mps 745 mmHg 81%
    08:00 +20°C° 0 mm 3 mps 745 mmHg 74%
    09:00 +21°C° 0.1 mm 3 mps 745 mmHg 70%
    10:00 +22°C° 0.1 mm 3 mps 744 mmHg 66%
    11:00 +23°C° 0.1 mm 4 mps 744 mmHg 62%
    12:00 +25°C° 0.2 mm 4 mps 744 mmHg 58%
    13:00 +26°C° 0.2 mm 4 mps 744 mmHg 53%
    14:00 +27°C° 0.2 mm 4 mps 743 mmHg 49%
    15:00 +27°C° 0.1 mm 4 mps 743 mmHg 50%
    16:00 +27°C° 0.1 mm 3 mps 743 mmHg 51%
    17:00 +27°C° 0.1 mm 3 mps 743 mmHg 52%
    18:00 +25°C° 0.2 mm 3 mps 743 mmHg 62%
    19:00 +23°C° 0.2 mm 2 mps 743 mmHg 72%
    20:00 +20°C° 0.2 mm 2 mps 743 mmHg 82%
    21:00 +19°C° 0 mm 2 mps 743 mmHg 85%
    22:00 +18°C° 0 mm 2 mps 743 mmHg 87%
    23:00 +17°C° 0 mm 2 mps 743 mmHg 90%

    26 June, Monday

    Time Temperature Precipitation Wind Pressure Humidity
    00:00 +17°C° 0.1 mm 2 mps 743 mmHg 91%
    01:00 +16°C° 0.1 mm 2 mps 743 mmHg 92%
    02:00 +16°C° 0.1 mm 2 mps 742 mmHg 94%
    03:00 +16°C° 0.2 mm 2 mps 742 mmHg 94%
    04:00 +16°C° 0.2 mm 2 mps 742 mmHg 94%
    05:00 +17°C° 0.2 mm 2 mps 742 mmHg 95%
    06:00 +17°C° 0.1 mm 2 mps 742 mmHg 93%
    07:00 +18°C° 0.1 mm 2 mps 742 mmHg 90%
    08:00 +19°C° 0.1 mm 3 mps 743 mmHg 88%
    09:00 +20°C° 0.2 mm 4 mps 743 mmHg 79%
    10:00 +22°C° 0.2 mm 5 mps 743 mmHg 69%
    11:00 +23°C° 0.2 mm 6 mps 743 mmHg 59%
    12:00 +24°C° 0 mm 6 mps 743 mmHg 52%
    13:00 +24°C° 0 mm 6 mps 743 mmHg 45%
    14:00 +26°C° 0 mm 7 mps 742 mmHg 38%
    15:00 +24°C° 0 mm 6 mps 743 mmHg 39%
    16:00 +24°C° 0 mm 6 mps 743 mmHg 39%
    17:00 +23°C° 0 mm 5 mps 743 mmHg 40%
    18:00 +21°C° 0 mm 5 mps 743 mmHg 47%
    19:00 +20°C° 0 mm 4 mps 744 mmHg 53%
    20:00 +18°C° 0 mm 3 mps 744 mmHg 60%
    21:00 +17°C° 0 mm 3 mps 745 mmHg 64%
    22:00 +15°C° 0 mm 2 mps 745 mmHg 69%
    23:00 +14°C° 0 mm 2 mps 746 mmHg 73%

    27 June, Tuesday

    Time Temperature Precipitation Wind Pressure Humidity
    00:00 +14°C° 0 mm 2 mps 746 mmHg 75%
    01:00 +13°C° 0 mm 2 mps 746 mmHg 78%
    02:00 +12°C° 0 mm 2 mps 746 mmHg 80%
    03:00 +11°C° 0 mm 3 mps 747 mmHg 80%
    04:00 +11°C° 0 mm 3 mps 747 mmHg 80%
    05:00 +11°C° 0 mm 3 mps 747 mmHg 79%
    06:00 +13°C° 0 mm 3 mps 748 mmHg 72%
    07:00 +16°C° 0 mm 3 mps 748 mmHg 64%
    08:00 +18°C° 0 mm 4 mps 748 mmHg 56%
    09:00 +19°C° 0 mm 4 mps 748 mmHg 51%
    10:00 +21°C° 0 mm 4 mps 748 mmHg 46%
    11:00 +22°C° 0 mm 5 mps 748 mmHg 40%
    12:00 +23°C° 0 mm 4 mps 748 mmHg 39%
    13:00 +25°C° 0 mm 4 mps 748 mmHg 37%
    14:00 +25°C° 0 mm 4 mps 748 mmHg 35%
    15:00 +25°C° 0 mm 4 mps 747 mmHg 36%
    16:00 +25°C° 0 mm 3 mps 747 mmHg 37%
    17:00 +25°C° 0 mm 3 mps 747 mmHg 38%
    18:00 +22°C° 0 mm 3 mps 747 mmHg 48%
    19:00 +20°C° 0 mm 2 mps 747 mmHg 57%
    20:00 +18°C° 0 mm 2 mps 747 mmHg 66%
    21:00 +17°C° 0 mm 2 mps 747 mmHg 66%
    22:00 +16°C° 0 mm 2 mps 747 mmHg 66%
    23:00 +16°C° 0 mm 2 mps 747 mmHg 66%

    28 June, Wednesday

    Time Temperature Precipitation Wind Pressure Humidity
    00:00 +15°C° 0 mm 2 mps 747 mmHg 66%
    01:00 +15°C° 0 mm 2 mps 747 mmHg 66%
    02:00 +15°C° 0 mm 2 mps 747 mmHg 67%
    03:00 +15°C° 0 mm 2 mps 747 mmHg 67%
    04:00 +15°C° 0 mm 2 mps 747 mmHg 67%
    05:00 +16°C° 0 mm 2 mps 746 mmHg 67%
    06:00 +18°C° 0 mm 2 mps 746 mmHg 63%
    07:00 +20°C° 0 mm 3 mps 746 mmHg 59%
    08:00 +22°C° 0 mm 3 mps 746 mmHg 54%
    09:00 +25°C° 0 mm 4 mps 745 mmHg 52%
    10:00 +27°C° 0 mm 4 mps 745 mmHg 50%
    11:00 +29°C° 0 mm 5 mps 745 mmHg 48%
    12:00 +29°C° 0.5 mm 4 mps 744 mmHg 53%
    13:00 +29°C° 0.5 mm 4 mps 743 mmHg 58%
    14:00 +29°C° 0.5 mm 4 mps 743 mmHg 63%
    15:00 +29°C° 0.6 mm 3 mps 742 mmHg 67%
    16:00 +29°C° 0.6 mm 3 mps 742 mmHg 71%
    17:00 +28°C° 0.6 mm 2 mps 741 mmHg 75%
    18:00 +27°C° 0.5 mm 2 mps 741 mmHg 78%
    19:00 +26°C° 0.5 mm 2 mps 741 mmHg 81%
    20:00 +24°C° 0.5 mm 2 mps 741 mmHg 84%
    21:00 +24°C° 0.1 mm 2 mps 741 mmHg 86%
    22:00 +23°C° 0.1 mm 2 mps 741 mmHg 87%
    23:00 +21°C° 0.1 mm 2 mps 741 mmHg 89%
    Show more